Regional Weather Roundup
Issued by NWS Memphis, TN

Home | Current Version | Previous Version | Text Only | Print | Product List | Glossary On
Versions: 1 2 3 4 5 6 7 8 9 10 11 12 13 14 15 16 17 18 19 20 21 22 23 24 25 26 27 28 29 30 31 32 33 34 35 36 37 38 39 40 41 42 43 44 45 46 47 48 49 50
000
ASUS44 KMEG 130010
RWRMEG
MEMPHIS CWA HOURLY WEATHER ROUNDUP
NATIONAL WEATHER SERVICE MEMPHIS TN
600 PM CST TUE DEC 12 2017

...WEST TENNESSEE...

CITY           SKY/WX    TMP DP  RH WIND       PRES   REMARKS
MEMPHIS INTL   CLEAR     39  21  48 NW8       30.16R WCI  33
6HR MIN TEMP:  39; 6HR MAX TEMP:  49;

NWS MEMPHIS      N/A     39 N/A N/A MISG        N/A
JACKSON        CLEAR     34  18  52 CALM      30.15S
6HR MIN TEMP:  34; 6HR MAX TEMP:  46;

COVINGTON      CLEAR     37  18  44 N3        30.16S
SOMERVILLE     CLEAR     39  18  41 NW3       30.13S
BOLIVAR        CLEAR     37  16  41 CALM      30.14R
LEXINGTON      CLEAR     36  12  38 NW5       30.14R WCI  32
SELMER         CLEAR     36  18  48 NW3       30.13R
SAVANNAH       CLEAR     39  16  38 N9        30.13R WCI  33
DYERSBURG      CLEAR     37  18  46 NW5       30.16S WCI  33
6HR MIN TEMP:  37; 6HR MAX TEMP:  44;

UNION CITY     CLEAR     32  14  47 CALM      30.15S
PARIS          CLEAR     34   9  35 CALM      30.13R
HUNTINGDON     CLEAR     34  12  40 CALM      30.13S


...EASTERN ARKANSAS...

CITY           SKY/WX    TMP DP  RH WIND       PRES   REMARKS
JONESBORO      CLEAR     39  16  39 NW5       30.17S
6HR MIN TEMP:  39; 6HR MAX TEMP:  46;

WEST MEMPHIS   CLEAR     34  26  72 CALM      30.17S
6HR MIN TEMP:  34; 6HR MAX TEMP:  47;

BATESVILLE     CLEAR     40  14  34 NW3       30.18S
6HR MIN TEMP:  39; 6HR MAX TEMP:  47;

NEWPORT        CLEAR     38  16  40 NW7       30.18S WCI  33
6HR MIN TEMP:  38; 6HR MAX TEMP:  47;

WALNUT RIDGE   CLEAR     39  12  33 W5        30.17S
6HR MIN TEMP:  36; 6HR MAX TEMP:  46;

BLYTHEVILLE    CLEAR     33  20  58 NW7       30.16F WCI  27
6HR MIN TEMP:  33; 6HR MAX TEMP:  49;

SEARCY         CLEAR     42  15  33 CALM      30.18S
6HR MIN TEMP:  41; 6HR MAX TEMP:  52;

STUTTGART      CLEAR     42  21  43 NW3       30.18S
6HR MIN TEMP:  41; 6HR MAX TEMP:  51;

PINE BLUFF     CLEAR     46  17  31 CALM      30.18F
6HR MIN TEMP:  46; 6HR MAX TEMP:  53;

MONTICELLO     CLEAR     44  22  41 CALM      30.19S
6HR MIN TEMP:  44; 6HR MAX TEMP:  56;



...NORTH MISSISSIPPI...

CITY           SKY/WX    TMP DP  RH WIND       PRES   REMARKS
TUPELO         CLEAR     43  18  36 NW8       30.13R
6HR MIN TEMP:  42; 6HR MAX TEMP:  52;

OXFORD         CLEAR     41  25  52 W8        30.16S
BATESVILLE     CLEAR     40  22  48 CALM      30.18R
6HR MIN TEMP:  40; 6HR MAX TEMP:  51;

OLIVE BRANCH   PTCLDY    37  21  52 NW7       30.14R WCI  32
TUNICA           N/A    N/A N/A N/A NW5       30.20R
CLARKSDALE     CLEAR     39  23  52 NW6       30.19S WCI  35
CORINTH        CLEAR     39  18  41 N7        30.13S WCI  34
GREENWOOD      CLEAR     43  28  55 NW3       30.18R
6HR MIN TEMP:  43; 6HR MAX TEMP:  53;

COLUMBUS       CLEAR     45  28  50 NW9       30.11R
6HR MIN TEMP:  45; 6HR MAX TEMP:  55;

STARKVILLE     CLEAR     45  28  53 NW5       30.13R
GOLDEN TRIANGL CLEAR     45  27  49 NW6       30.12R
6HR MIN TEMP:  45; 6HR MAX TEMP:  56;



...SOUTHEAST MISSOURI...

CITY           SKY/WX    TMP DP  RH WIND       PRES   REMARKS
KENNETT        CLEAR     39  16  38 NW6       30.15S WCI  35
MALDEN         CLEAR     36  19  51 NW5       30.18R WCI  32
WEST PLAINS    CLEAR     32   8  36 NW3       30.15S
6HR MIN TEMP:  32; 6HR MAX TEMP:  43;

POPLAR BLUFF   CLEAR     37  10  32 W3        30.16S
6HR MIN TEMP:  37; 6HR MAX TEMP:  46;

CAPE GIRARDEAU CLEAR     34   6  31 NW5       30.16R WCI  30
6HR MIN TEMP:  33; 6HR MAX TEMP:  41;



...NORTHWEST ALABAMA...

CITY           SKY/WX    TMP DP  RH WIND       PRES   REMARKS
MUSCLE SHOALS  CLEAR     42  21  43 NW9       30.11R
6HR MIN TEMP:  42; 6HR MAX TEMP:  51;



...MIDDLE TENNESSEE...

CITY           SKY/WX    TMP DP  RH WIND       PRES   REMARKS
NASHVILLE      CLEAR     35   9  33 NW13G20   30.10R WCI  26
6HR MIN TEMP:  35; 6HR MAX TEMP:  44;

CLARKSVILLE    CLEAR     32   6  33 NW7       30.12R WCI  26
6HR MIN TEMP:  31; 6HR MAX TEMP:  40;

COLUMBIA       CLEAR     36  10  35 VRB3      30.09R


...WESTERN KENTUCKY...

CITY           SKY/WX    TMP DP  RH WIND       PRES   REMARKS
PADUCAH        CLEAR     33   9  36 W3        30.14S
6HR MIN TEMP:  33; 6HR MAX TEMP:  40;

FORT CAMPBELL  CLEAR     31   7  35 NW7       30.11R WCI  25
6HR MIN TEMP:  31; 6HR MAX TEMP:  39;



...CENTRAL ARKANSAS...

CITY           SKY/WX    TMP DP  RH WIND       PRES   REMARKS
LITTLE ROCK    CLEAR     45  15  30 W6        30.19S
6HR MIN TEMP:  44; 6HR MAX TEMP:  52;



SKY/WX REPORTED AS FAIR MEANS FEW OR NO CLOUDS BELOW
12 THOUSAND FEET.




USA.gov is the U.S. government's official web portal to all federal, state and local government web resources and services.